Location: Unspecified
(41.1637°N, 24.2901°E)
Time: 22:10:30
(UTC+01:00)

ISS - Pass Details

Date: 14 November 2019
Orbit: 412 x 421 km, 51.6° (Epoch: 15 November)

Event Time Altitude Azimuth Distance (km) Brightness Sun altitude
Exits shadow 03:29:39 11° 125° (SE) 1,437 -0.5 -30.0°
Drops below altitude 10° 03:29:48 10° 125° (SE) 1,498 -0.4 -30.0°
Sets 03:31:53 0° 126° (SE) 2,355 0.8 -29.6°
